| time (UTC) | temp C | wind direction | speed KPH | gust KPH | rain 1hr cm | rain 24hr cm | rain mn cm | humidity % | barometer mb |
| 20260507013500 | 10 | 9 | 3.2 | 8.0 | 0.00 | 0.51 | 0.00 | 87 | 1011.2 |
| 20260507013001 | 10 | 9 | 3.2 | 3.2 | 0.00 | 0.51 | 0.00 | 87 | 1011.4 |
| 20260507012500 | 10 | 10 | 3.2 | 6.4 | 0.00 | 0.51 | 0.00 | 88 | 1011.0 |
| 20260507012000 | 10 | 12 | 3.2 | 9.7 | 0.00 | 0.51 | 0.00 | 88 | 1011.1 |
| 20260507011500 | 10 | 6 | 1.6 | 4.8 | 0.00 | 0.51 | 0.00 | 88 | 1011.1 |
| 20260507011000 | 10 | 352 | 1.6 | 3.2 | 0.00 | 0.51 | 0.00 | 88 | 1011.2 |
| 20260507010500 | 10 | 354 | 1.6 | 3.2 | 0.00 | 0.51 | 0.00 | 88 | 1011.0 |
| 20260507010000 | 10 | 47 | 1.6 | 3.2 | 0.00 | 0.51 | 0.00 | 88 | 1010.9 |
| 20260507005500 | 10 | 33 | 1.6 | 6.4 | 0.00 | 0.51 | 0.00 | 88 | 1011.1 |
| 20260507005000 | 10 | 17 | 1.6 | 3.2 | 0.00 | 0.51 | 0.00 | 88 | 1010.9 |
| 20260507004501 | 10 | 14 | 1.6 | 4.8 | 0.00 | 0.51 | 0.00 | 88 | 1010.9 |
| 20260507004000 | 10 | 30 | 1.6 | 6.4 | 0.00 | 0.51 | 0.00 | 88 | 1011.0 |
| 20260507003500 | 10 | 23 | 1.6 | 4.8 | 0.00 | 0.51 | 0.00 | 88 | 1011.0 |
| 20260507003000 | 10 | 27 | 1.6 | 6.4 | 0.00 | 0.51 | 0.00 | 88 | 1010.7 |
| 20260507002500 | 10 | 14 | 1.6 | 4.8 | 0.00 | 0.51 | 0.00 | 88 | 1010.9 |
| 20260507002000 | 10 | 353 | 3.2 | 6.4 | 0.00 | 0.51 | 0.00 | 88 | 1010.9 |
| 20260507001500 | 10 | 2 | 1.6 | 4.8 | 0.00 | 0.51 | 0.00 | 88 | 1011.0 |
| 20260507001001 | 10 | 9 | 1.6 | 6.4 | 0.00 | 0.51 | 0.00 | 88 | 1010.8 |
| 20260507000501 | 10 | 5 | 3.2 | 3.2 | 0.00 | 0.51 | 0.00 | 88 | 1010.8 |
| 20260507000002 | 10 | 14 | 3.2 | 12.9 | 0.00 | 0.51 | 0.00 | 88 | 1011.0 |
| 20260506235501 | 10 | 10 | 3.2 | 3.2 | 0.00 | 0.51 | 0.00 | 88 | 1011.0 |
| 20260506235001 | 11 | 3 | 3.2 | 8.0 | 0.00 | 0.51 | 0.00 | 88 | 1010.7 |
| 20260506234501 | 11 | 8 | 3.2 | 3.2 | 0.00 | 0.51 | 0.00 | 88 | 1010.9 |
| 20260506234001 | 11 | 357 | 3.2 | 6.4 | 0.00 | 0.51 | 0.00 | 88 | 1010.6 |
| 20260506233501 | 11 | 17 | 3.2 | 6.4 | 0.00 | 0.51 | 0.00 | 88 | 1010.8 |
| 20260506233000 | 11 | 33 | 3.2 | 4.8 | 0.00 | 0.51 | 0.00 | 88 | 1010.8 |
| 20260506232500 | 11 | 2 | 3.2 | 6.4 | 0.00 | 0.51 | 0.00 | 88 | 1010.7 |
| 20260506232000 | 11 | 9 | 3.2 | 4.8 | 0.00 | 0.51 | 0.00 | 89 | 1010.7 |
| 20260506231500 | 11 | 6 | 3.2 | 4.8 | 0.00 | 0.51 | 0.00 | 89 | 1010.7 |
| 20260506231000 | 11 | 23 | 3.2 | 8.0 | 0.00 | 0.51 | 0.00 | 89 | 1010.6 |
| 20260506230500 | 11 | 10 | 1.6 | 8.0 | 0.00 | 0.51 | 0.00 | 89 | 1010.5 |
| 20260506230000 | 11 | 30 | 1.6 | 4.8 | 0.00 | 0.51 | 0.00 | 88 | 1010.6 |
| 20260506225500 | 11 | 5 | 3.2 | 9.7 | 0.00 | 0.51 | 0.00 | 89 | 1010.6 |
| 20260506225000 | 11 | 15 | 3.2 | 6.4 | 0.00 | 0.51 | 0.00 | 88 | 1010.5 |
| 20260506224500 | 11 | 23 | 3.2 | 8.0 | 0.00 | 0.51 | 0.00 | 88 | 1010.2 |
| 20260506224000 | 11 | 0 | 3.2 | 8.0 | 0.00 | 0.51 | 0.00 | 88 | 1010.2 |
| 20260506223500 | 11 | 10 | 3.2 | 4.8 | 0.00 | 0.51 | 0.00 | 88 | 1010.6 |
| 20260506223000 | 11 | 22 | 3.2 | 8.0 | 0.00 | 0.51 | 0.00 | 88 | 1010.6 |
| 20260506222500 | 11 | 359 | 3.2 | 6.4 | 0.00 | 0.51 | 0.00 | 88 | 1010.2 |
| 20260506222000 | 11 | 26 | 3.2 | 6.4 | 0.00 | 0.51 | 0.00 | 88 | 1010.4 |
| 20260506221500 | 11 | 17 | 1.6 | 4.8 | 0.00 | 0.51 | 0.00 | 88 | 1010.2 |
| 20260506221000 | 11 | 13 | 1.6 | 3.2 | 0.00 | 0.51 | 0.00 | 88 | 1010.2 |
| 20260506220500 | 11 | 11 | 1.6 | 6.4 | 0.00 | 0.51 | 0.00 | 87 | 1010.2 |
| 20260506220000 | 11 | 21 | 1.6 | 6.4 | 0.00 | 0.51 | 0.36 | 88 | 1010.5 |
| 20260506215501 | 11 | 7 | 1.6 | 3.2 | 0.00 | 0.51 | 0.36 | 88 | 1010.1 |
| 20260506215001 | 11 | 14 | 3.2 | 8.0 | 0.00 | 0.51 | 0.36 | 87 | 1010.2 |
| 20260506214501 | 11 | 349 | 3.2 | 4.8 | 0.00 | 0.51 | 0.36 | 87 | 1010.2 |
| 20260506214001 | 11 | 16 | 3.2 | 6.4 | 0.00 | 0.51 | 0.36 | 87 | 1010.1 |
| 20260506213501 | 11 | 5 | 3.2 | 6.4 | 0.00 | 0.51 | 0.36 | 87 | 1010.0 |
| 20260506213001 | 11 | 8 | 1.6 | 9.7 | 0.00 | 0.51 | 0.36 | 87 | 1010.1 |
| 20260506212501 | 11 | 96 | 1.6 | 12.9 | 0.00 | 0.51 | 0.36 | 87 | 1010.0 |
| 20260506212001 | 11 | 3 | 1.6 | 8.0 | 0.00 | 0.51 | 0.36 | 87 | 1010.0 |
| 20260506211501 | 11 | 30 | 1.6 | 12.9 | 0.00 | 0.51 | 0.36 | 88 | 1010.0 |
| 20260506211000 | 11 | 356 | 3.2 | 4.8 | 0.00 | 0.51 | 0.36 | 88 | 1010.0 |
| 20260506210500 | 11 | 358 | 3.2 | 6.4 | 0.00 | 0.51 | 0.36 | 88 | 1009.9 |
| 20260506210000 | 11 | 37 | 3.2 | 14.5 | 0.00 | 0.51 | 0.36 | 88 | 1010.0 |
| 20260506205500 | 11 | 34 | 3.2 | 6.4 | 0.00 | 0.51 | 0.36 | 88 | 1009.7 |
| 20260506205000 | 11 | 13 | 3.2 | 6.4 | 0.00 | 0.51 | 0.36 | 88 | 1009.7 |
| 20260506204500 | 11 | 58 | 3.2 | 8.0 | 0.00 | 0.51 | 0.36 | 88 | 1009.7 |
| 20260506204000 | 12 | 17 | 1.6 | 4.8 | 0.00 | 0.51 | 0.36 | 88 | 1009.9 |
| 20260506203500 | 12 | 10 | 1.6 | 8.0 | 0.00 | 0.51 | 0.36 | 88 | 1009.9 |
| 20260506203001 | 12 | 14 | 1.6 | 6.4 | 0.00 | 0.51 | 0.36 | 88 | 1009.6 |
| 20260506202500 | 12 | 57 | 3.2 | 8.0 | 0.00 | 0.51 | 0.36 | 88 | 1009.7 |
| 20260506202000 | 12 | 358 | 3.2 | 6.4 | 0.00 | 0.51 | 0.36 | 88 | 1009.5 |
| 20260506201500 | 12 | 13 | 1.6 | 6.4 | 0.00 | 0.51 | 0.36 | 88 | 1009.4 |
| 20260506201000 | 12 | 358 | 1.6 | 4.8 | 0.00 | 0.51 | 0.36 | 87 | 1009.7 |
| 20260506200500 | 12 | 14 | 1.6 | 4.8 | 0.00 | 0.51 | 0.36 | 87 | 1009.5 |
| 20260506200001 | 12 | 16 | 1.6 | 3.2 | 0.00 | 0.51 | 0.36 | 87 | 1009.3 |
| 20260506195500 | 12 | 6 | 1.6 | 4.8 | 0.00 | 0.51 | 0.36 | 87 | 1009.3 |
| 20260506195000 | 12 | 54 | 1.6 | 3.2 | 0.00 | 0.51 | 0.36 | 86 | 1009.4 |
| 20260506194500 | 12 | 53 | 3.2 | 6.4 | 0.00 | 0.51 | 0.36 | 86 | 1009.1 |
| 20260506194000 | 12 | 40 | 1.6 | 3.2 | 0.00 | 0.51 | 0.36 | 87 | 1009.1 |
| 20260506193501 | 12 | 24 | 3.2 | 6.4 | 0.00 | 0.51 | 0.36 | 88 | 1009.1 |
| 20260506193001 | 12 | 359 | 1.6 | 4.8 | 0.00 | 0.51 | 0.36 | 87 | 1009.2 |
| 20260506192501 | 12 | 22 | 1.6 | 4.8 | 0.00 | 0.51 | 0.36 | 87 | 1008.9 |
| 20260506192001 | 12 | 20 | 1.6 | 4.8 | 0.00 | 0.51 | 0.36 | 87 | 1009.1 |
| 20260506191501 | 12 | 20 | 1.6 | 6.4 | 0.00 | 0.51 | 0.36 | 87 | 1008.9 |
| 20260506191001 | 13 | 14 | 1.6 | 4.8 | 0.00 | 0.51 | 0.36 | 87 | 1008.8 |
| 20260506190501 | 13 | 21 | 3.2 | 6.4 | 0.00 | 0.51 | 0.36 | 87 | 1008.8 |
| 20260506190001 | 13 | 10 | 3.2 | 8.0 | 0.00 | 0.51 | 0.36 | 87 | 1008.6 |
| 20260506185501 | 13 | 107 | 3.2 | 6.4 | 0.00 | 0.51 | 0.36 | 87 | 1008.6 |
| 20260506185000 | 13 | 10 | 3.2 | 3.2 | 0.00 | 0.51 | 0.36 | 88 | 1008.4 |
| 20260506184500 | 13 | 1 | 0.0 | 6.4 | 0.00 | 0.51 | 0.36 | 89 | 1008.4 |
| 20260506184001 | 13 | 0 | 0.0 | 3.2 | 0.00 | 0.51 | 0.36 | 89 | 1008.2 |
| 20260506183500 | 13 | 359 | 1.6 | 3.2 | 0.00 | 0.51 | 0.36 | 89 | 1008.2 |
| 20260506183000 | 13 | 2 | 3.2 | 4.8 | 0.00 | 0.51 | 0.36 | 88 | 1008.3 |
| 20260506182500 | 13 | 56 | 3.2 | 4.8 | 0.00 | 0.51 | 0.36 | 88 | 1008.0 |
| 20260506182000 | 13 | 8 | 3.2 | 9.7 | 0.00 | 0.51 | 0.36 | 88 | 1008.1 |
| 20260506181500 | 13 | 4 | 3.2 | 8.0 | 0.00 | 0.51 | 0.36 | 88 | 1008.2 |
| 20260506181000 | 13 | 46 | 1.6 | 8.0 | 0.00 | 0.51 | 0.36 | 88 | 1007.9 |
| 20260506180500 | 13 | 2 | 1.6 | 4.8 | 0.00 | 0.51 | 0.36 | 89 | 1007.6 |
| 20260506180000 | 13 | 50 | 1.6 | 1.6 | 0.00 | 0.51 | 0.36 | 89 | 1007.9 |
| 20260506175500 | 14 | 31 | 1.6 | 4.8 | 0.00 | 0.51 | 0.36 | 89 | 1007.8 |
| 20260506175001 | 14 | 31 | 1.6 | 3.2 | 0.00 | 0.51 | 0.36 | 89 | 1007.5 |
| 20260506174500 | 14 | 344 | 3.2 | 3.2 | 0.00 | 0.51 | 0.36 | 89 | 1007.8 |
| 20260506174000 | 14 | 14 | 1.6 | 9.7 | 0.05 | 0.51 | 0.36 | 88 | 1007.5 |
| 20260506173501 | 14 | 139 | 3.2 | 8.0 | 0.13 | 0.51 | 0.36 | 90 | 1007.3 |
| 20260506173001 | 14 | 35 | 3.2 | 8.0 | 0.13 | 0.51 | 0.36 | 89 | 1007.4 |
| 20260506172501 | 14 | 1 | 3.2 | 6.4 | 0.13 | 0.51 | 0.36 | 89 | 1007.6 |
| 20260506172001 | 14 | 5 | 3.2 | 4.8 | 0.13 | 0.51 | 0.36 | 89 | 1007.4 |
| 20260506171501 | 14 | 359 | 4.8 | 4.8 | 0.13 | 0.51 | 0.36 | 89 | 1007.5 |
| 20260506171001 | 14 | 9 | 4.8 | 14.5 | 0.13 | 0.51 | 0.36 | 89 | 1007.4 |
| 20260506170501 | 15 | 7 | 3.2 | 6.4 | 0.13 | 0.48 | 0.36 | 89 | 1007.2 |
| 20260506170000 | 15 | 359 | 3.2 | 4.8 | 0.13 | 0.48 | 0.36 | 88 | 1007.4 |
| 20260506165501 | 15 | 340 | 3.2 | 8.0 | 0.13 | 0.48 | 0.36 | 88 | 1007.5 |
| 20260506165000 | 15 | 25 | 3.2 | 4.8 | 0.10 | 0.48 | 0.33 | 88 | 1007.4 |
| 20260506164500 | 15 | 52 | 1.6 | 6.4 | 0.08 | 0.46 | 0.30 | 88 | 1007.4 |
| 20260506163500 | 15 | 8 | 1.6 | 4.8 | 0.00 | 0.36 | 0.23 | 87 | 1007.4 |
| 20260506163000 | 15 | 42 | 1.6 | 8.0 | 0.00 | 0.36 | 0.23 | 87 | 1007.1 |
| 20260506162500 | 15 | 35 | 1.6 | 4.8 | 0.00 | 0.36 | 0.23 | 85 | 1006.8 |
| 20260506162000 | 15 | 76 | 1.6 | 3.2 | 0.00 | 0.36 | 0.23 | 85 | 1007.0 |
| 20260506161500 | 15 | 72 | 1.6 | 8.0 | 0.00 | 0.36 | 0.23 | 83 | 1007.1 |
| 20260506161000 | 15 | 31 | 1.6 | 9.7 | 0.00 | 0.36 | 0.23 | 82 | 1006.9 |
| 20260506160500 | 16 | 79 | 1.6 | 4.8 | 0.05 | 0.36 | 0.23 | 82 | 1007.0 |
| 20260506160000 | 16 | 29 | 1.6 | 6.4 | 0.08 | 0.36 | 0.23 | 81 | 1007.0 |
| 20260506155500 | 16 | 46 | 1.6 | 3.2 | 0.08 | 0.36 | 0.23 | 81 | 1007.0 |
| 20260506155000 | 16 | 16 | 4.8 | 8.0 | 0.08 | 0.36 | 0.23 | 81 | 1007.0 |
| 20260506154500 | 16 | 28 | 3.2 | 8.0 | 0.08 | 0.36 | 0.23 | 81 | 1007.0 |
| 20260506154000 | 16 | 358 | 3.2 | 6.4 | 0.08 | 0.36 | 0.23 | 81 | 1007.1 |
| 20260506153500 | 16 | 354 | 4.8 | 8.0 | 0.08 | 0.36 | 0.23 | 81 | 1006.9 |
| 20260506153000 | 16 | 7 | 4.8 | 9.7 | 0.08 | 0.36 | 0.23 | 81 | 1006.9 |
| 20260506152501 | 16 | 24 | 3.2 | 14.5 | 0.08 | 0.36 | 0.23 | 80 | 1007.0 |
| 20260506152001 | 16 | 66 | 3.2 | 4.8 | 0.08 | 0.36 | 0.23 | 80 | 1007.0 |
| 20260506151501 | 17 | 3 | 4.8 | 9.7 | 0.08 | 0.36 | 0.23 | 78 | 1006.9 |
| 20260506151001 | 17 | 36 | 6.4 | 6.4 | 0.08 | 0.36 | 0.23 | 76 | 1006.8 |
| 20260506150501 | 17 | 338 | 6.4 | 9.7 | 0.00 | 0.28 | 0.13 | 70 | 1006.9 |
| 20260506150001 | 17 | 30 | 6.4 | 12.9 | 0.00 | 0.28 | 0.13 | 68 | 1006.8 |
| 20260506145501 | 17 | 14 | 6.4 | 12.9 | 0.00 | 0.28 | 0.13 | 66 | 1006.6 |
| 20260506145001 | 17 | 48 | 4.8 | 9.7 | 0.00 | 0.28 | 0.13 | 64 | 1006.5 |
| 20260506144500 | 18 | 36 | 3.2 | 9.7 | 0.00 | 0.28 | 0.13 | 63 | 1006.6 |
| 20260506144000 | 18 | 7 | 3.2 | 6.4 | 0.00 | 0.28 | 0.13 | 61 | 1006.5 |
| 20260506143500 | 18 | 347 | 3.2 | 8.0 | 0.00 | 0.28 | 0.13 | 60 | 1006.5 |
| 20260506143000 | 18 | 28 | 3.2 | 6.4 | 0.00 | 0.28 | 0.13 | 60 | 1006.5 |
| 20260506142500 | 18 | 334 | 4.8 | 8.0 | 0.00 | 0.28 | 0.13 | 60 | 1006.4 |
| 20260506142000 | 18 | 1 | 4.8 | 12.9 | 0.00 | 0.28 | 0.13 | 59 | 1006.4 |
| 20260506141500 | 18 | 342 | 4.8 | 9.7 | 0.00 | 0.28 | 0.13 | 58 | 1006.5 |
| 20260506141000 | 18 | 333 | 4.8 | 12.9 | 0.00 | 0.28 | 0.13 | 57 | 1006.3 |
| 20260506140500 | 18 | 45 | 4.8 | 9.7 | 0.00 | 0.28 | 0.13 | 57 | 1006.4 |
| 20260506140000 | 18 | 10 | 4.8 | 9.7 | 0.00 | 0.28 | 0.13 | 57 | 1006.2 |
| 20260506135500 | 18 | 3 | 6.4 | 9.7 | 0.00 | 0.28 | 0.13 | 57 | 1006.3 |
| 20260506135000 | 18 | 351 | 6.4 | 12.9 | 0.00 | 0.28 | 0.13 | 58 | 1006.2 |
| 20260506134500 | 18 | 15 | 4.8 | 16.1 | 0.00 | 0.28 | 0.13 | 59 | 1006.3 |
| 20260506134000 | 18 | 3 | 3.2 | 9.7 | 0.00 | 0.28 | 0.13 | 59 | 1006.4 |
| 20260506133500 | 18 | 6 | 4.8 | 9.7 | 0.00 | 0.28 | 0.13 | 59 | 1006.2 |
| 20260506133000 | 18 | 9 | 6.4 | 12.9 | 0.00 | 0.28 | 0.13 | 59 | 1006.3 |
| 20260506132500 | 18 | 6 | 4.8 | 14.5 | 0.00 | 0.28 | 0.13 | 60 | 1006.1 |
| 20260506132000 | 18 | 11 | 4.8 | 9.7 | 0.00 | 0.28 | 0.13 | 59 | 1006.3 |
| 20260506131500 | 18 | 357 | 6.4 | 4.8 | 0.00 | 0.28 | 0.13 | 59 | 1006.5 |
| 20260506131001 | 18 | 351 | 6.4 | 12.9 | 0.00 | 0.28 | 0.13 | 59 | 1006.4 |
| 20260506130501 | 18 | 20 | 6.4 | 17.7 | 0.00 | 0.28 | 0.13 | 59 | 1006.2 |
| 20260506130001 | 17 | 0 | 4.8 | 9.7 | 0.00 | 0.28 | 0.13 | 59 | 1006.7 |
| 20260506125501 | 17 | 334 | 3.2 | 6.4 | 0.00 | 0.28 | 0.13 | 60 | 1006.5 |
| 20260506125001 | 17 | 335 | 3.2 | 14.5 | 0.00 | 0.28 | 0.13 | 59 | 1006.2 |
| 20260506124501 | 17 | 273 | 3.2 | 8.0 | 0.00 | 0.28 | 0.13 | 61 | 1006.5 |
| 20260506124001 | 17 | 1 | 3.2 | 9.7 | 0.00 | 0.28 | 0.13 | 61 | 1006.4 |
| 20260506123500 | 17 | 338 | 1.6 | 12.9 | 0.00 | 0.28 | 0.13 | 62 | 1006.6 |
| 20260506123001 | 17 | 338 | 1.6 | 3.2 | 0.00 | 0.28 | 0.13 | 62 | 1006.4 |
| 20260506122500 | 17 | 12 | 1.6 | 3.2 | 0.00 | 0.28 | 0.13 | 62 | 1006.3 |
| 20260506122000 | 17 | 347 | 3.2 | 6.4 | 0.00 | 0.28 | 0.13 | 62 | 1006.5 |
| 20260506121500 | 17 | 350 | 3.2 | 6.4 | 0.00 | 0.28 | 0.13 | 62 | 1006.4 |
| 20260506121000 | 18 | 344 | 3.2 | 8.0 | 0.00 | 0.28 | 0.13 | 61 | 1006.5 |
| 20260506120500 | 18 | 335 | 3.2 | 12.9 | 0.00 | 0.28 | 0.13 | 60 | 1006.5 |
| 20260506120000 | 18 | 332 | 3.2 | 9.7 | 0.00 | 0.28 | 0.13 | 58 | 1006.6 |
| 20260506115500 | 18 | 337 | 3.2 | 9.7 | 0.00 | 0.28 | 0.13 | 57 | 1006.5 |
| 20260506115000 | 18 | 326 | 4.8 | 12.9 | 0.00 | 0.28 | 0.13 | 57 | 1006.5 |
| 20260506114500 | 18 | 346 | 4.8 | 9.7 | 0.00 | 0.28 | 0.13 | 57 | 1006.5 |
| 20260506114000 | 18 | 335 | 4.8 | 8.0 | 0.00 | 0.28 | 0.13 | 57 | 1006.6 |
| 20260506113500 | 18 | 278 | 6.4 | 14.5 | 0.00 | 0.28 | 0.13 | 56 | 1006.4 |
| 20260506113000 | 18 | 332 | 4.8 | 9.7 | 0.00 | 0.28 | 0.13 | 55 | 1006.6 |
| 20260506112500 | 17 | 357 | 6.4 | 9.7 | 0.00 | 0.28 | 0.13 | 58 | 1006.4 |
| 20260506112000 | 17 | 300 | 6.4 | 14.5 | 0.00 | 0.28 | 0.13 | 61 | 1006.7 |
| 20260506111500 | 17 | 343 | 4.8 | 8.0 | 0.00 | 0.28 | 0.13 | 61 | 1006.5 |
| 20260506111000 | 17 | 32 | 4.8 | 9.7 | 0.00 | 0.28 | 0.13 | 62 | 1006.7 |
| 20260506110501 | 17 | 275 | 6.4 | 12.9 | 0.00 | 0.28 | 0.13 | 65 | 1006.7 |
| 20260506110001 | 17 | 337 | 4.8 | 14.5 | 0.00 | 0.28 | 0.13 | 65 | 1006.9 |
| 20260506105501 | 17 | 339 | 4.8 | 9.7 | 0.00 | 0.28 | 0.13 | 66 | 1006.8 |
| 20260506105001 | 17 | 321 | 4.8 | 9.7 | 0.00 | 0.28 | 0.13 | 64 | 1006.6 |
| 20260506104501 | 17 | 358 | 6.4 | 12.9 | 0.00 | 0.28 | 0.13 | 62 | 1006.5 |
| 20260506104000 | 17 | 341 | 4.8 | 17.7 | 0.00 | 0.28 | 0.13 | 62 | 1006.8 |
| 20260506103500 | 17 | 303 | 3.2 | 14.5 | 0.00 | 0.28 | 0.13 | 64 | 1006.7 |
| 20260506103000 | 17 | 3 | 4.8 | 14.5 | 0.00 | 0.28 | 0.13 | 62 | 1007.0 |
| 20260506102500 | 17 | 357 | 4.8 | 17.7 | 0.00 | 0.28 | 0.13 | 63 | 1006.6 |
| 20260506102000 | 17 | 349 | 6.4 | 12.9 | 0.00 | 0.28 | 0.13 | 61 | 1006.6 |
| 20260506101500 | 17 | 293 | 6.4 | 14.5 | 0.00 | 0.28 | 0.13 | 62 | 1006.7 |
| 20260506101000 | 17 | 347 | 6.4 | 12.9 | 0.00 | 0.28 | 0.13 | 61 | 1006.9 |
| 20260506100500 | 17 | 7 | 4.8 | 9.7 | 0.00 | 0.28 | 0.13 | 61 | 1006.9 |
| 20260506100000 | 17 | 15 | 6.4 | 9.7 | 0.00 | 0.28 | 0.13 | 60 | 1006.6 |
| 20260506095500 | 17 | 321 | 4.8 | 4.8 | 0.00 | 0.28 | 0.13 | 60 | 1006.7 |
| 20260506095000 | 17 | 5 | 3.2 | 8.0 | 0.00 | 0.28 | 0.13 | 61 | 1006.7 |
| 20260506094500 | 16 | 353 | 4.8 | 12.9 | 0.00 | 0.28 | 0.13 | 62 | 1006.8 |
| 20260506094000 | 16 | 19 | 4.8 | 14.5 | 0.00 | 0.28 | 0.13 | 63 | 1006.3 |
| 20260506093500 | 16 | 357 | 6.4 | 4.8 | 0.00 | 0.28 | 0.13 | 65 | 1006.7 |
| 20260506093000 | 16 | 346 | 6.4 | 19.3 | 0.00 | 0.28 | 0.13 | 65 | 1006.5 |
| 20260506092500 | 16 | 10 | 6.4 | 12.9 | 0.00 | 0.28 | 0.13 | 65 | 1006.6 |
| 20260506092000 | 15 | 7 | 6.4 | 12.9 | 0.00 | 0.28 | 0.13 | 67 | 1006.8 |
| 20260506091501 | 15 | 280 | 4.8 | 12.9 | 0.00 | 0.28 | 0.13 | 71 | 1006.7 |
| 20260506091001 | 15 | 308 | 6.4 | 12.9 | 0.00 | 0.28 | 0.13 | 72 | 1007.0 |
| 20260506090501 | 15 | 341 | 4.8 | 14.5 | 0.00 | 0.28 | 0.13 | 73 | 1006.7 |
| 20260506090001 | 15 | 290 | 3.2 | 8.0 | 0.00 | 0.28 | 0.13 | 72 | 1007.0 |
| 20260506085501 | 15 | 12 | 1.6 | 8.0 | 0.00 | 0.28 | 0.13 | 72 | 1006.9 |
| 20260506085001 | 15 | 343 | 1.6 | 8.0 | 0.00 | 0.28 | 0.13 | 73 | 1006.8 |
| 20260506084501 | 15 | 26 | 3.2 | 6.4 | 0.00 | 0.28 | 0.13 | 75 | 1006.8 |
| 20260506084001 | 15 | 352 | 3.2 | 8.0 | 0.00 | 0.28 | 0.13 | 76 | 1006.9 |
| 20260506083501 | 15 | 337 | 3.2 | 14.5 | 0.00 | 0.28 | 0.13 | 77 | 1006.6 |
| 20260506083001 | 15 | 274 | 1.6 | 9.7 | 0.00 | 0.28 | 0.13 | 78 | 1006.9 |
| 20260506082501 | 15 | 7 | 1.6 | 3.2 | 0.00 | 0.28 | 0.13 | 78 | 1006.6 |
| 20260506082000 | 15 | 358 | 1.6 | 6.4 | 0.00 | 0.28 | 0.13 | 78 | 1006.5 |
| 20260506081500 | 15 | 345 | 3.2 | 6.4 | 0.00 | 0.28 | 0.13 | 77 | 1006.6 |
| 20260506081000 | 15 | 334 | 4.8 | 9.7 | 0.00 | 0.28 | 0.13 | 78 | 1006.6 |
| 20260506080500 | 15 | 284 | 3.2 | 9.7 | 0.00 | 0.28 | 0.13 | 78 | 1006.6 |
| 20260506073500 | 15 | 271 | 3.2 | 6.4 | 0.00 | 0.28 | 0.13 | 77 | 1006.5 |
| 20260506073000 | 15 | 301 | 3.2 | 8.0 | 0.00 | 0.28 | 0.13 | 74 | 1006.6 |
| 20260506072500 | 15 | 352 | 3.2 | 8.0 | 0.00 | 0.28 | 0.13 | 77 | 1006.5 |
| 20260506072000 | 15 | 357 | 3.2 | 9.7 | 0.00 | 0.28 | 0.13 | 79 | 1006.7 |
| 20260506071000 | 15 | 317 | 3.2 | 9.7 | 0.00 | 0.28 | 0.13 | 80 | 1006.5 |
| 20260506070500 | 15 | 324 | 3.2 | 6.4 | 0.00 | 0.28 | 0.13 | 82 | 1006.5 |
| 20260506062501 | 13 | 339 | 3.2 | 6.4 | 0.00 | 0.28 | 0.13 | 89 | 1006.7 |
| 20260506062001 | 13 | 343 | 1.6 | 6.4 | 0.00 | 0.28 | 0.13 | 90 | 1006.3 |
| 20260506061500 | 13 | 289 | 1.6 | 3.2 | 0.00 | 0.28 | 0.13 | 91 | 1006.7 |
| 20260506061000 | 13 | 297 | 3.2 | 4.8 | 0.00 | 0.28 | 0.13 | 92 | 1006.7 |
| 20260506060500 | 13 | 298 | 3.2 | 8.0 | 0.00 | 0.28 | 0.13 | 92 | 1006.7 |
| 20260506051001 | 12 | 319 | 3.2 | 4.8 | 0.00 | 0.28 | 0.13 | 97 | 1006.6 |
| 20260506050500 | 12 | 279 | 3.2 | 6.4 | 0.00 | 0.28 | 0.13 | 97 | 1006.5 |
| 20260506045001 | 12 | 277 | 1.6 | 4.8 | 0.00 | 0.28 | 0.13 | 97 | 1006.4 |
| 20260506044501 | 12 | 1 | 1.6 | 8.0 | 0.00 | 0.28 | 0.13 | 97 | 1006.6 |
| 20260506044001 | 12 | 290 | 1.6 | 9.7 | 0.00 | 0.28 | 0.13 | 97 | 1006.6 |
| 20260506043501 | 12 | 341 | 1.6 | 12.9 | 0.00 | 0.28 | 0.13 | 97 | 1006.6 |
| 20260506043001 | 12 | 340 | 1.6 | 9.7 | 0.00 | 0.28 | 0.13 | 97 | 1006.4 |
| 20260506042501 | 12 | 287 | 1.6 | 4.8 | 0.00 | 0.28 | 0.13 | 98 | 1006.6 |
| 20260506042001 | 12 | 324 | 1.6 | 3.2 | 0.00 | 0.28 | 0.13 | 98 | 1006.5 |
| 20260506041501 | 12 | 308 | 1.6 | 3.2 | 0.00 | 0.28 | 0.13 | 98 | 1006.6 |
| 20260506041001 | 12 | 351 | 1.6 | 6.4 | 0.00 | 0.28 | 0.13 | 98 | 1006.6 |
| 20260506040500 | 12 | 303 | 1.6 | 6.4 | 0.00 | 0.28 | 0.13 | 98 | 1006.4 |
| 20260506040001 | 12 | 342 | 1.6 | 8.0 | 0.00 | 0.28 | 0.13 | 98 | 1006.6 |
| 20260506035500 | 12 | 273 | 1.6 | 4.8 | 0.00 | 0.28 | 0.13 | 98 | 1006.5 |
| 20260506035000 | 12 | 324 | 1.6 | 8.0 | 0.00 | 0.28 | 0.13 | 99 | 1006.7 |
| 20260506034500 | 12 | 294 | 1.6 | 4.8 | 0.00 | 0.28 | 0.13 | 98 | 1006.9 |
| 20260506034000 | 12 | 339 | 1.6 | 4.8 | 0.00 | 0.28 | 0.13 | 98 | 1006.5 |
| 20260506033500 | 12 | 344 | 1.6 | 4.8 | 0.00 | 0.28 | 0.13 | 98 | 1006.7 |
| 20260506033000 | 12 | 268 | 3.2 | 3.2 | 0.00 | 0.28 | 0.13 | 98 | 1006.4 |
| 20260506032500 | 12 | 271 | 1.6 | 8.0 | 0.00 | 0.28 | 0.13 | 98 | 1006.6 |
| 20260506032000 | 12 | 336 | 1.6 | 3.2 | 0.00 | 0.28 | 0.13 | 98 | 1006.6 |
| 20260506031500 | 12 | 322 | 1.6 | 3.2 | 0.00 | 0.28 | 0.13 | 98 | 1006.5 |
| 20260506031000 | 12 | 299 | 1.6 | 8.0 | 0.00 | 0.28 | 0.13 | 98 | 1006.6 |
| 20260506030500 | 12 | 311 | 1.6 | 4.8 | 0.00 | 0.28 | 0.13 | 98 | 1006.8 |
| 20260506030000 | 12 | 308 | 1.6 | 6.4 | 0.00 | 0.28 | 0.13 | 97 | 1006.7 |
| 20260506025500 | 12 | 293 | 1.6 | 6.4 | 0.00 | 0.28 | 0.13 | 97 | 1006.7 |
| 20260506025001 | 12 | 291 | 1.6 | 6.4 | 0.00 | 0.28 | 0.13 | 97 | 1006.9 |
| 20260506024501 | 12 | 267 | 0.0 | 4.8 | 0.00 | 0.28 | 0.13 | 98 | 1006.9 |
| 20260506024001 | 12 | 335 | 0.0 | 3.2 | 0.00 | 0.28 | 0.13 | 98 | 1006.6 |
| 20260506023501 | 12 | 307 | 0.0 | 3.2 | 0.00 | 0.28 | 0.13 | 98 | 1006.9 |
| 20260506023001 | 12 | 326 | 0.0 | 1.6 | 0.00 | 0.28 | 0.13 | 98 | 1006.8 |
| 20260506022501 | 12 | 337 | 0.0 | 3.2 | 0.00 | 0.28 | 0.13 | 98 | 1006.9 |
| 20260506022001 | 12 | 298 | 0.0 | 1.6 | 0.00 | 0.28 | 0.13 | 98 | 1006.9 |
| 20260506021501 | 12 | 291 | 0.0 | 3.2 | 0.00 | 0.28 | 0.13 | 98 | 1006.8 |
| 20260506021001 | 12 | 298 | 0.0 | 1.6 | 0.00 | 0.28 | 0.13 | 98 | 1007.1 |
| 20260506020500 | 12 | 341 | 1.6 | 3.2 | 0.00 | 0.28 | 0.13 | 98 | 1007.0 |
| 20260506020000 | 12 | 337 | 0.0 | 3.2 | 0.00 | 0.28 | 0.13 | 98 | 1007.1 |
| 20260506015500 | 12 | 339 | 0.0 | 1.6 | 0.00 | 0.28 | 0.13 | 98 | 1007.2 |
| 20260506015001 | 12 | 307 | 0.0 | 4.8 | 0.00 | 0.28 | 0.13 | 98 | 1006.8 |
| 20260506014500 | 12 | 3 | 1.6 | 3.2 | 0.00 | 0.28 | 0.13 | 98 | 1006.9 |
| 20260506014000 | 12 | 309 | 1.6 | 4.8 | 0.00 | 0.28 | 0.13 | 98 | 1007.2 |